Mobile, AL

12:25 AM CDT on October 21, 2017 (GMT -0500)
Mobile Regional

Weather History for KMOB - May, 2012

Change the Weather History Date:

Monday, May 21, 2012

  Actual Average Record
Temperature  
Mean Temperature 75 °F 75 °F  
Max Temperature 90 °F 86 °F 95 °F (1962)
Min Temperature 60 °F 65 °F 50 °F (1954)
Cooling Degree Days 10 10  
Month to date cooling degree days 207 170  
Year to date cooling degree days 550 329  
Growing Degree Days 25 (Base 50)    
Moisture  
Dew Point 61 °F    
Average Humidity 64    
Maximum Humidity 93    
Minimum Humidity 34    
Precipitation  
Precipitation 0.06 in 0.17 in 1.46 in (1911)
Month to date precipitation 7.74 3.41  
Year to date precipitation 26.43 25.11  
Sea Level Pressure  
Sea Level Pressure 30.02 in    
Wind  
Wind Speed 5 mph (NW)    
Max Wind Speed 17 mph    
Max Gust Speed 20 mph    
Visibility 9 miles    
Events Rain , Thunderstorm    
T = Trace of Precipitation, MM = Missing Value Source: NWS Daily Summary

Daily Weather History Graph

Daily Weather History Graph

Search for Another Location

Airport or City:

Trip Planner

Search our weather history database for the weather conditions in past years. The results will help you decide how hot, cold, wet, or windy it might be!

Date:

Astronomy

May. 21, 2012 Rise Set
Actual Time 5:54 AM CDT 7:44 PM CDT
Civil Twilight 5:27 AM CDT 8:11 PM CDT
Nautical Twilight 4:55 AM CDT 8:44 PM CDT
Astronomical Twilight 4:21 AM CDT 9:18 PM CDT
Moon 6:18 AM CDT 8:33 PM CDT
Length of Visible Light 14h 43m
Length of Day
13h 50m
New Moon, 0% of the Moon is Illuminated
May 21
New Moon
May 28
First Quarter
Jun 4
Full
Jun 11
Last Quarter
Jun 19
New

Hourly Weather History & Observations

Time (CDT) Temp. Heat Index Dew Point Humidity Pressure Visibility Wind Dir Wind Speed Gust Speed Precip Events Conditions
12:56 AM 66.0 °F - 61.0 °F 84% 30.05 in 10.0 mi West 4.6 mph - N/A   Clear
1:56 AM 64.9 °F - 60.1 °F 84% 30.04 in 10.0 mi West 3.5 mph - N/A   Clear
2:56 AM 63.0 °F - 59.0 °F 87% 30.03 in 10.0 mi West 4.6 mph - N/A   Clear
3:56 AM 64.0 °F - 59.0 °F 84% 30.03 in 10.0 mi West 4.6 mph - N/A   Clear
4:56 AM 62.1 °F - 57.9 °F 86% 30.04 in 10.0 mi West 3.5 mph - N/A   Clear
5:56 AM 61.0 °F - 57.9 °F 90% 30.05 in 10.0 mi West 3.5 mph - N/A   Clear
6:56 AM 66.0 °F - 61.0 °F 84% 30.06 in 10.0 mi NW 3.5 mph - N/A   Clear
7:56 AM 73.0 °F - 60.1 °F 64% 30.06 in 10.0 mi NW 3.5 mph - N/A   Clear
8:56 AM 80.1 °F 80.7 °F 59.0 °F 48% 30.07 in 10.0 mi WNW 6.9 mph - N/A   Clear
9:56 AM 84.0 °F 83.3 °F 57.0 °F 40% 30.07 in 10.0 mi WNW 8.1 mph - N/A   Clear
10:56 AM 88.0 °F 86.7 °F 57.0 °F 35% 30.05 in 10.0 mi NNW 10.4 mph - N/A   Partly Cloudy
11:56 AM 89.1 °F 88.0 °F 57.9 °F 35% 30.04 in 10.0 mi North 8.1 mph - N/A   Scattered Clouds
12:56 PM 90.0 °F 88.8 °F 57.9 °F 34% 30.03 in 10.0 mi North 6.9 mph - N/A   Scattered Clouds
1:56 PM 88.0 °F 87.1 °F 59.0 °F 37% 30.01 in 10.0 mi NNW 6.9 mph - N/A   Mostly Cloudy
2:11 PM 89.6 °F 89.5 °F 60.8 °F 38% 30.01 in 7.0 mi North 11.5 mph - N/A Thunderstorm Thunderstorm
2:39 PM 84.2 °F 85.0 °F 62.6 °F 48% 30.01 in 10.0 mi ENE 13.8 mph - N/A   Mostly Cloudy
2:56 PM 81.0 °F 81.9 °F 62.1 °F 52% 30.00 in 10.0 mi ENE 12.7 mph - N/A   Mostly Cloudy
3:56 PM 84.9 °F 84.8 °F 60.1 °F 43% 29.97 in 10.0 mi Calm Calm - N/A   Mostly Cloudy
4:56 PM 84.9 °F 85.9 °F 63.0 °F 48% 29.96 in 10.0 mi SE 5.8 mph - 0.00 in   Mostly Cloudy
5:56 PM 84.0 °F 84.4 °F 61.0 °F 46% 29.96 in 10.0 mi South 5.8 mph - N/A   Mostly Cloudy
6:17 PM 82.4 °F 83.4 °F 62.6 °F 51% 29.96 in 7.0 mi SSW 6.9 mph - N/A Thunderstorm Thunderstorm
6:45 PM 78.8 °F - 60.8 °F 54% 30.01 in 7.0 mi NNW 10.4 mph - N/A Thunderstorm Thunderstorm
6:49 PM 73.4 °F - 60.8 °F 65% 30.01 in 4.0 mi North 6.9 mph - 0.00 in Rain , Thunderstorm Heavy Thunderstorms and Rain
6:56 PM 73.0 °F - 64.0 °F 73% 30.01 in 4.0 mi ESE 9.2 mph - 0.03 in Rain , Thunderstorm Heavy Thunderstorms and Rain
7:40 PM 69.8 °F - 64.4 °F 83% 29.99 in 10.0 mi SSE 6.9 mph - 0.03 in   Mostly Cloudy
7:56 PM 69.1 °F - 64.0 °F 84% 29.99 in 10.0 mi ESE 6.9 mph - 0.03 in   Mostly Cloudy
8:56 PM 68.0 °F - 64.0 °F 87% 29.99 in 10.0 mi SE 3.5 mph - N/A   Mostly Cloudy
9:56 PM 69.8 °F - 62.6 °F 78% 30.00 in 10.0 mi Calm Calm - N/A   Scattered Clouds
10:56 PM 66.9 °F - 64.0 °F 90% 29.99 in 10.0 mi West 5.8 mph - 0.00 in   Overcast
11:56 PM 68.0 °F - 64.0 °F 87% 29.98 in 10.0 mi West 3.5 mph - N/A   Overcast